Regional Weather Roundup
Issued by NWS Mt. Holly, NJ

Current Version |  Previous Version |  Text Only |  Print | Product List |  Glossary On
Versions: 1 2 3 4 5 6 7 8 9 10 11 12 13 14 15 16 17 18 19 20 21 22 23 24 25 26 27
544
ASUS41 KPHI 200110
RWRPHI

REGIONAL WEATHER ROUNDUP
NATIONAL WEATHER SERVICE MOUNT HOLLY NJ
900 PM EDT SUN MAY 19 2024

NOTE:  "FAIR" INDICATES FEW OR NO CLOUDS BELOW 12,000 FEET WITH NO
SIGNIFICANT WEATHER AND/OR OBSTRUCTIONS TO VISIBILITY.

 * = STATION DOES NOT REPORT PRECIPITATION (E.G. RAIN, SNOW, ETC.)
        OR FOG.

NJZ015>026-200200-
SOUTHERN NEW JERSEY

CITY           SKY/WX    TMP DP  RH WIND       PRES   REMARKS
POMONA         PTCLDY    56  51  84 E5        30.03R
WILDWOOD*      PTCLDY    56  54  93 E6        30.03R
MILLVILLE      CLEAR     60  55  83 SE6       30.01R
LAKEHURST      PTCLDY    57  53  86 E6        30.01R
MOUNT HOLLY    CLEAR     65  57  75 SE3       30.00R
TRENTON        MOCLDY    66  56  70 SE10      29.99R

$$
NJZ001>014-200200-
NORTHERN NEW JERSEY

CITY           SKY/WX    TMP DP  RH WIND       PRES   REMARKS
SUSSEX         MOCLDY    68  58  70 CALM      29.99R
ANDOVER*         N/A     68  57  68 CALM      29.99R
MORRISTOWN     MOCLDY    66  59  77 S7        30.01R
NEWARK         MOCLDY    60  54  80 SE7       30.02R
TETERBORO      MOCLDY    62  54  74 SW8       29.99R
CALDWELL       MOCLDY    67  53  61 S6        30.01R
SOMERVILLE     PTCLDY    66  57  72 S3        29.98R
ALLAIRE*       PTCLDY    55  53  93 E5        30.04R
TOMS RIVER*    PTCLDY    56  53  90 CALM      30.02R

$$
PAZ043-044-047-054-055-060>062-066>071-200200-
EASTERN PENNSYLVANIA

CITY           SKY/WX    TMP DP  RH WIND       PRES   REMARKS
PHILADELPHIA   MOCLDY    68  60  75 SE8       29.99R
NORTH PHILA    MOCLDY    69  57  65 SE7       30.01R
BLUE BELL*     CLOUDY    65  62  90 CALM      29.99R
DOYLESTOWN     CLEAR     67  59  75 CALM        N/A
QUAKERTOWN*    CLEAR     66  63  88 CALM      29.99R
PERKASIE*      PTCLDY    63  63 100 CALM      30.00R
POTTSTOWN      CLEAR     66  59  78 CALM      30.00R
LANCASTER      MOCLDY    71  62  73 CALM      29.97R
COATESVILLE    CLEAR     68  61  77 CALM      30.00R
WEST CHESTER   CLEAR     68  59  73 CALM      29.99R
READING        CLOUDY    70  60  70 CALM      29.97R
ALLENTOWN      CLOUDY    69  57  65 CALM      29.97R
QN CITY/ALNTWN CLOUDY    70  59  68 SE5       29.99R
MOUNT POCONO   CLOUDY    60  57  89 CALM      30.02R
HAZLETON       PTCLDY    61  55  82 CALM      30.04R
LEHIGHTON      PTCLDY    63  59  88 CALM      29.99R
WILKES BARRE   PTCLDY    67  59  75 E3        29.98R

$$
DEZALL-MDZ008-012-015-019-020-200200-
DELAWARE AND EASTERN MARYLAND

CITY           SKY/WX    TMP DP  RH WIND       PRES   REMARKS
WILMINGTON     CLEAR     63  58  83 S15       29.99R
DOVER          PTCLDY    61  56  84 SE5       29.99
GEORGETOWN     CLEAR     59  55  87 SE3       30.01R
EASTON         MOCLDY    64  63  94 CALM      29.98R
STEVENSVILLE   CLEAR     64  64 100 CALM      29.98S
PATUXENT       CLEAR     69  60  73 N5        29.99R
OCEAN CITY     PTCLDY    58  54  86 E6        30.01R
WALLOPS ISLAND CLEAR     59  55  87 E7        30.01R
CAMBRIDGE      MOCLDY    66  66 100 CALM      29.99R
SALISBURY      CLEAR     59  55  87 SE3       30.00R

$$
PAZ001-021-NYZ056-072-MDZ011-DCZ001-200200-
OTHER NEARBY LOCATIONS

CITY           SKY/WX    TMP DP  RH WIND       PRES   REMARKS
HARRISBURG     PTCLDY    69  60  73 SE3       29.96R
STATE COLLEGE  CLEAR     68  59  73 NW6       30.00R
WILLIAMSPORT   PTCLDY    69  61  75 CALM      29.95R
BINGHAMTON     CLEAR     69  54  58 NW3       29.99R
NEW YORK CITY  PTCLDY    60  53  77 VRB3      30.04R
BALTIMORE      PTCLDY    67  61  81 S5        29.98R
WASHINGTON DC  PTCLDY    71  61  70 S5        29.98R

$$